898  
ASUS41 KAKQ 210815  
RWRAKQ  
 
REGIONAL WEATHER ROUNDUP  
NATIONAL WEATHER SERVICE WAKEFIELD VA  
400 AM EDT SAT OCT 21 2017  
 
NOTE: "FAIR" INDICATES FEW OR NO CLOUDS BELOW 12,000 FEET WITH NO  
SIGNIFICANT WEATHER AND/OR S TO VISIBILITY
. * = DENOTES  
STATION MAY NOT REPORT PRECIPITATION (E.G., RAIN,SNOW,ETC.),
 
THUNDER OR FOG.  
 
VAZ042-051-052>054-056-210900-  
NORTHERN VIRGINIA  
 
CITY SKY/WX TMP DP RH WIND PRES REMARKS
 
WASH NATIONAL PTCLDY 54 51 90 SW3 30.28S  
DULLES PTCLDY 43 43 100 CALM 30.28S  
FORT BELVOIR PTCLDY 46 45 96 CALM 30.27S  
QUANTICO CLEAR 51 49 92 NW8 30.28S  
FREDERICKSBRG* PTCLDY 48 48 100 CALM 30.27S  
STAFFORD* CLEAR 43 43 100 CALM 30.31S  
WARRENTON CLEAR 40 37 89 CALM 30.27F  
CULPEPER* CLEAR 44 42 94 CALM 30.29S FOG  
MANASSAS* PTCLDY 42 41 96 CALM 30.28S  
LEESBURG* CLEAR 46 46 100 CALM 30.29R  
WINCHESTER CLEAR 43 41 93 CALM 30.28S  
FRONT ROYAL* SUNNY 45 43 93 MISG 30.27F  
LURAY* SUNNY 45 45 100 CALM 30.29S  

 
 
VAZ048-049-060>072-079>083-210900-  
CENTRAL AND SOUTH CENTRAL VIRGINIA  
 
CITY SKY/WX TMP DP RH WIND PRES REMARKS
 
RICHMOND CLEAR 51 50 96 CALM 30.26F  
CHESTERFIELD* NOT AVBL  
PETERSBURG* CLEAR N/A N/A N/A CALM 30.26F HAZE  
HANOVER PTCLDY 49 48 97 CALM 30.28F  
TAPPAHANNOCK* PTCLDY N/A N/A N/A CALM 30.27F  
QUINTON* FAIR 48 48 100 CALM 30.26F  
CHARLOTTSVILLE CLEAR 52 50 93 CALM 30.28S  
GORDONSVILLE* SUNNY 47 47 100 CALM 30.28S  
ORANGE* PTCLDY 45 45 100 CALM 30.28S  
LOUISA* CLEAR 45 45 100 CALM 30.27S FOG  
BUMPASS* FAIR 49 49 100 CALM 30.27S  
FARMVILLE* CLEAR 47 47 100 CALM 30.26S  
CREWE* FAIR 47 47 100 CALM 30.27S  
FORT PICKETT* FAIR 52 52 100 CALM 30.27S  
CHASE CITY* FAIR 50 50 100 N3 30.26F  
CLARKSVILLE* FAIR 50 50 100 CALM 30.26S  
SOUTH HILL* CLEAR 49 49 100 CALM 30.32S  
LAWRENCEVILLE* FAIR 51 49 94 CALM 30.26S  
EMPORIA* CLEAR 46 46 100 CALM 30.27F  

 
 
VAZ088>098-210900-  
SOUTHEAST VIRGINIA  
 
CITY SKY/WX TMP DP RH WIND PRES REMARKS
 
NORFOLK CLEAR 56 54 93 SW3 30.26S  
VIRGINIA BEACH CLEAR 53 51 93 CALM 30.25S  
NORFOLK NAVAL CLEAR 55 54 96 CALM 30.27S  
WEST POINT* CLEAR 47 47 100 CALM 30.28S  
SALUDA* PTSUNNY 51 51 100 CALM 30.26S  
NEWPORT NEWS FOG 51 50 96 CALM 30.26S VSB 1/4  
LANGLEY AFB CLEAR 54 54 100 CALM 30.26R FOG  
FORT EUSTIS CLEAR 54 51 90 CALM 30.24S  
WILLIAMSBURG* CLOUDY 55 55 100 CALM 30.27S  
HR EXEC AP* NOT AVBL  
FRANKLIN* CLEAR 48 47 95 CALM 30.27S  
US460-WAKEFLD CLEAR 51 51 100 CALM 30.26S FOG  

 
 
VAZ020-022-025-037-045-210900-  
WEST CENTRAL AND SOUTHWEST VIRGINIA  
 
CITY SKY/WX TMP DP RH WIND PRES REMARKS
 
STAUNTON* CLEAR 41 40 96 CALM 30.31S  
WAYNESBORO* MOSUNNY 47 47 100 CALM 30.30S  
HOT SPRINGS VA CLEAR 56 44 64 CALM 30.35S  
LYNCHBURG CLEAR 51 50 96 CALM 30.28F  
DANVILLE CLEAR 47 47 100 CALM 30.27S  
SOUTH BOSTON* FAIR 45 44 95 CALM 30.27S  
MARTINSVILLE CLEAR 44 43 97 CALM 30.30S  
ROANOKE CLEAR 50 49 96 W3 30.30F  
BLACKSBURG CLEAR 48 48 99 CALM 30.33S  
DUBLIN* CLEAR 47 46 98 CALM 30.32S  
MARION* N/A 46 43 90 E3 30.33R FOG  
HILLSVILLE* CLEAR 51 43 72 CALM 30.30S  
RICHLANDS* FAIR 60 -27 2 SE3 30.28S  
WISE* CLEAR 61 45 55 S6 30.28S  
ABINGDON* CLEAR 52 46 80 E3 30.27S  

 
 
MDZ021>025-VAZ099-100-210900-  
SOUTHERN MARYLAND AND THE DELMARVA PENINSULA  
 
CITY SKY/WX TMP DP RH WIND PRES REMARKS
 
PATUXENT RIVER CLEAR 48 48 100 W6 30.26F  
BAY BRIDGE APT CLEAR 54 52 94 CALM 30.27S  
LEONARDTOWN NOT AVBL  
DOVER CLEAR 52 45 76 W3 30.21S  
GEORGETOWN CLEAR 48 46 93 CALM 30.27S  
EASTON CLEAR 50 48 92 CALM 30.30S  
CAMBRIDGE FOG 46 46 100 CALM 30.26F VSB 1/4  
SALISBURY CLEAR 47 47 100 CALM 30.26S  
OCEAN CITY CLEAR 49 47 93 NW6 30.26S  
WALLOPS ISLAND CLEAR 50 49 96 NW6 30.26F  
ACCOMACK* CLEAR 50 50 100 CALM 30.25F  

 
 
NCZ012>017-030>032-210900-  
NORTH CENTRAL AND EASTERN NORTH CAROLINA  
 
CITY SKY/WX TMP DP RH WIND PRES REMARKS
 
ROANOKE RAPIDS FAIR 48 48 100 CALM 30.26S  
RALEIGH CLEAR 51 51 100 CALM 30.26S  
ELIZABETH CITY FOG 53 53 100 CALM 30.26F VSB 1/4  
AHOSKIE* CLEAR 49 49 99 CALM 30.26F  
EDENTON* CLEAR 54 52 94 CALM 30.27S  
CURRITUCK* CLEAR 53 52 98 CALM 30.27S  
KILL DEVIL HLS CLEAR N/A N/A N/A CALM 30.24F  
MANTEO FOG N/A N/A N/A CALM 30.26S VSB 1/2  
CAPE HATTERAS CLEAR 62 61 96 N3 30.24F  
TARBORO* NOT AVBL  
GOLDSBORO CLEAR 51 49 94 CALM 30.23S FOG  
WASHINGTON CLEAR 52 51 96 CALM 30.25F  
GREENVILLE CLEAR 52 52 100 CALM 30.26S  
NEW BERN CLEAR 53 53 100 CALM 30.26S  
WILMINGTON CLEAR 53 52 96 CALM 30.24S  

 
 
VAZ048-210900-  
ELSEWHERE  
 
CITY SKY/WX TMP DP RH WIND PRES REMARKS
 
HARRISBURG PA PTCLDY 47 46 97 CALM 30.27S  
BALTIMORE PTCLDY 48 46 93 CALM 30.26S  
ANNAPOLIS CLEAR 53 51 93 CALM 30.26S  
ANDREWS AFB PTCLDY 47 45 92 CALM 30.26F  
PHILADELPHIA CLEAR 53 45 74 CALM 30.26S  
HENDERSON NC CLEAR 49 47 92 CALM 30.26F  
GREENSBORO CLEAR 52 49 89 CALM 30.26F  
ROCKY MOUNT PTCLDY 51 51 100 CALM 30.25F FOG  

 
 
VAZ100-210900-  
MARINE  
 
STATION/POSITION TIME TEMP WIND PRES WAVE SWELL
 
AIR SEA DIR/SP/G HT/PER HT/PER  
(UTC) (F) (DEG/KT/KT) (MB) (FT/S) (FT/S)  
BRANDYWINE LGT 0742 66 360/ 5/ 6 1024.5F  
CAPE MAY NJ 0742 58 65 30/ 3/ 5 1023.6F  
LEWES DE 0742 57 66 260/ 3/ 4 1024.2F  
15NM E FENWICK I 0750 67 67 320/ 8/ 10 1024.7S 2/ 8 2/ 8  
OCEAN-CITY-INLET 0742 58 66 360/ 5/ 5 1024.9R  
WACHAPREAGUE VA 0742 53 65 300/ 1/ 2 1024.5F  
THOMAS POINT MD 0800 60 67 320/ 5/ 5 N/A  
GOOSES REEF MD 0800 66 68 CALM / 2 1024.4 0  
COVE POINT MD 0742 62 CALM / 1 1025.2F  
SOLOMONS ISLAND 0742 58 69 290/ 1/ 2 1024.3F  
BISHOPS HEAD MD 0742 62 66 10/ 2/ 2 1024.9F  
PINEY POINT MD 0724 CALM / 1 N/A  
POTOMAC MD 0800 65 69 300/ 4/ 6 1024.0 0  
CAMBRIDGE MD 0742 53 67 1025.5F  
LEWISETTA VA 0742 57 65 270/ 3/ 4 1024.5F  
RAPPAHANNOCK LGT 0742 310/ 3/ 4 1025.1F  
STINGRAY PT 0800 65 68 320/ 4/ 6 1024.8 0  
YORK RVR RNG VA 0742 65 350/ 2/ 2 1025.1F  
YORKTOWN VA 0742 60 69 CALM / 2 1024.3F  
JAMESTOWN VA 0800 69 60/ 4/ 4 N/A 0  
DOMINION TERM VA 0742 64 240/ 6/ 6 1024.8F  
KIPTOPEKE VA 0742 68 30/ 1/ 2 N/A  
CAPE HENRY VA 0742 64 240/ 5/ 5 N/A  
WILLOUBY STN VA 0742 64 230/ 7/ 8 1024.5S  
S CRANEY ISL VA 0742 61 230/ 3/ 4 1024.4F  
CAPE HENRY BUOY 0800 70 N/A 2/ 8  
1ST LANDING BUOY 0800 66 69 1024.6 1  
CAPE CHARLES BUO 0751 70 N/A 2/ 9  
64NM E OF VA BCH 0750 66 67 320/ 2/ 2 1024.8S 2/ 8 2/ 8  
DUCK PIER NC 0742 65 70 280/ 5/ 5 1024.0F  
44100 DUCK FRF 0735 70 N/A 2/ 8  
44056 DUCK FRF 0800 69 N/A 2/ 8  
OREGON INLET NC 0742 63 70 320/ 2/ 3 1024.1F  
HATTERAS NC 0742 67 71 10/ 3/ 4 1023.9F  
DIAMOND SHLS NC 0750 74 81 30/ 8/ 10 1023.6F 3/ 9 2/ 9  
CAPE LOOKOUT NC 0800 66 360/ 6/ 7 1023.7F  

 
 
 
CLICK HERE TO GO TO PREVIOUS BULLETINS.

The Nexlab VA Page
The Nexlab NC Page
The Nexlab MD Page Main Text Page